,,Stat6,,Stat2,,Stat8,,Stat9,,Stat10,,Wind1,,Wind1,
time,status,PA1M_AVG,status,PR1M_SUM,status,RH1M_AVG,status,SR1M_AVG,status,TA1M_AVG,status,W1dAve1m,status,W1sAve1m,
2005-08-23, 00:00:00,VALID,919.864,VALID,0,VALID,100,VALID,-0.0509425,VALID,20.2511,VALID,110,VALID,0,
2005-08-23, 00:01:00,VALID,919.857,VALID,0,VALID,100,VALID,-0.0509425,VALID,20.2406,VALID,110,VALID,0,
2005-08-23, 00:02:00,VALID,919.843,VALID,0,VALID,100,VALID,-0.0849042,VALID,20.2478,VALID,110,VALID,0,
2005-08-23, 00:03:00,VALID,919.835,VALID,0,VALID,100,VALID,-0.0169808,VALID,20.2416,VALID,110,VALID,0,
2005-08-23, 00:04:00,VALID,919.815,VALID,0,VALID,100,VALID,-0.0509425,VALID,20.1929,VALID,110,VALID,0,
2005-08-23, 00:05:00,VALID,919.82,VALID,0,VALID,100,VALID,-0.0679233,VALID,20.1609,VALID,110,VALID,0,
2005-08-23, 00:06:00,VALID,919.818,VALID,0,VALID,100,VALID,-0.0679233,VALID,20.1345,VALID,110,VALID,0.112537,
2005-08-23, 00:07:00,VALID,919.805,VALID,0,VALID,100,VALID,-0.0509425,VALID,20.1348,VALID,110,VALID,0.330729,
2005-08-23, 00:08:00,VALID,919.803,VALID,0,VALID,100,VALID,0,VALID,20.1415,VALID,110,VALID,0.304315,
2005-08-23, 00:09:00,VALID,919.791,VALID,0,VALID,100,VALID,-0.0339617,VALID,20.1507,VALID,110,VALID,0.331174,
2005-08-23, 00:10:00,VALID,919.789,VALID,0.2,VALID,100,VALID,-0.0339617,VALID,20.1534,VALID,110,VALID,0.254383,
2005-08-23, 00:11:00,VALID,919.784,VALID,0,VALID,100,VALID,-0.0509425,VALID,20.1668,VALID,110,VALID,0.0490234,
2005-08-23, 00:12:00,VALID,919.782,VALID,0,VALID,100,VALID,-0.0849042,VALID,20.18,VALID,110,VALID,0.0837054,
2005-08-23, 00:13:00,VALID,919.767,VALID,0,VALID,100,VALID,-0.101885,VALID,20.1606,VALID,140,VALID,0.490473,
2005-08-23, 00:14:00,VALID,919.751,VALID,0,VALID,100,VALID,-0.0509425,VALID,20.1345,VALID,141,VALID,0.324653,
2005-08-23, 00:15:00,VALID,919.744,VALID,0,VALID,100,VALID,0.0169808,VALID,20.098,VALID,141,VALID,0.488917,
2005-08-23, 00:16:00,VALID,919.723,VALID,0,VALID,100,VALID,0,VALID,20.0721,VALID,141,VALID,0.231399,
2005-08-23, 00:17:00,VALID,919.706,VALID,0,VALID,100,VALID,0,VALID,20.0629,VALID,141,VALID,0.0455729,
2005-08-23, 00:18:00,VALID,919.703,VALID,0,VALID,100,VALID,0,VALID,20.0528,VALID,128,VALID,0.267857,
2005-08-23, 00:19:00,VALID,919.676,VALID,0,VALID,100,VALID,0,VALID,20.0172,VALID,109,VALID,0.262091,
2005-08-23, 00:20:00,VALID,919.67,VALID,0,VALID,100,VALID,0,VALID,20.0078,VALID,111,VALID,0.369549,
2005-08-23, 00:21:00,VALID,919.646,VALID,0,VALID,100,VALID,0,VALID,20.0013,VALID,132,VALID,0.196332,
2005-08-23, 00:22:00,VALID,919.644,VALID,0,VALID,100,VALID,0.0169808,VALID,19.9944,VALID,132,VALID,0.0299782,
2005-08-23, 00:23:00,VALID,919.637,VALID,0,VALID,100,VALID,0,VALID,19.9814,VALID,132,VALID,0.195871,
2005-08-23, 00:24:00,VALID,919.634,VALID,0,VALID,100,VALID,0,VALID,19.9653,VALID,132,VALID,0.0429688,
2005-08-23, 00:25:00,VALID,919.635,VALID,0,VALID,100,VALID,0.0169808,VALID,19.9559,VALID,129,VALID,0.180575,
2005-08-23, 00:26:00,VALID,919.626,VALID,0,VALID,100,VALID,0.0169808,VALID,19.9529,VALID,121,VALID,0.223722,
2005-08-23, 00:27:00,VALID,919.618,VALID,0,VALID,100,VALID,0,VALID,19.9432,VALID,121,VALID,0.284446,
2005-08-23, 00:28:00,VALID,919.606,VALID,0,VALID,100,VALID,0,VALID,19.9333,VALID,121,VALID,0.385356,
2005-08-23, 00:29:00,VALID,919.59,VALID,0,VALID,100,VALID,0.0169808,VALID,19.9499,VALID,121,VALID,0.171354,
2005-08-23, 00:30:00,VALID,919.574,VALID,0,VALID,100,VALID,0,VALID,19.9464,VALID,121,VALID,0.312314,
2005-08-23, 00:31:00,VALID,919.539,VALID,0,VALID,100,VALID,-0.0169808,VALID,19.9559,VALID,120,VALID,0.288336,
2005-08-23, 00:32:00,VALID,919.529,VALID,0,VALID,100,VALID,0,VALID,19.9656,VALID,119,VALID,0.38899,
2005-08-23, 00:33:00,VALID,919.505,VALID,0,VALID,100,VALID,0.0169808,VALID,19.9817,VALID,119,VALID,0.304688,
2005-08-23, 00:34:00,VALID,919.499,VALID,0,VALID,100,VALID,-0.0339617,VALID,19.9889,VALID,119,VALID,0.338341,
2005-08-23, 00:35:00,VALID,919.476,VALID,0,VALID,100,VALID,0,VALID,20.0083,VALID,119,VALID,0.324805,
2005-08-23, 00:36:00,VALID,919.462,VALID,0,VALID,100,VALID,-0.0169808,VALID,20.0048,VALID,119,VALID,0.234375,
2005-08-23, 00:37:00,VALID,919.422,VALID,0,VALID,100,VALID,0,VALID,20.0046,VALID,119,VALID,0.332031,
2005-08-23, 00:38:00,VALID,919.432,VALID,0,VALID,100,VALID,-0.0169808,VALID,20.0078,VALID,119,VALID,0.293857,
2005-08-23, 00:39:00,VALID,919.403,VALID,0,VALID,100,VALID,0.0169808,VALID,20.0048,VALID,119,VALID,0.265825,
2005-08-23, 00:40:00,VALID,919.395,VALID,0,VALID,100,VALID,-0.0169808,VALID,19.9916,VALID,119,VALID,0.0633681,
2005-08-23, 00:41:00,VALID,919.382,VALID,0,VALID,100,VALID,0,VALID,20.0013,VALID,119,VALID,0,
2005-08-23, 00:42:00,VALID,919.363,VALID,0,VALID,100,VALID,0,VALID,20.0108,VALID,119,VALID,0.00109012,
2005-08-23, 00:43:00,VALID,919.347,VALID,0,VALID,100,VALID,0,VALID,20.0078,VALID,119,VALID,0,
2005-08-23, 00:44:00,VALID,919.33,VALID,0,VALID,100,VALID,0,VALID,20.014,VALID,119,VALID,0,
2005-08-23, 00:45:00,VALID,919.319,VALID,0,VALID,100,VALID,0,VALID,20.0369,VALID,119,VALID,0,
2005-08-23, 00:46:00,VALID,919.307,VALID,0,VALID,100,VALID,-0.0169808,VALID,20.0498,VALID,119,VALID,0,
2005-08-23, 00:47:00,VALID,919.291,VALID,0,VALID,100,VALID,0,VALID,20.0207,VALID,119,VALID,0,
2005-08-23, 00:48:00,VALID,919.284,VALID,0.2,VALID,100,VALID,0,VALID,20.021,VALID,119,VALID,0,
2005-08-23, 00:49:00,VALID,919.285,VALID,0,VALID,100,VALID,0,VALID,20.0011,VALID,119,VALID,0,
2005-08-23, 00:50:00,VALID,919.271,VALID,0,VALID,100,VALID,0.0169808,VALID,20.0108,VALID,119,VALID,0,
2005-08-23, 00:51:00,VALID,919.275,VALID,0,VALID,100,VALID,0,VALID,20.0406,VALID,119,VALID,0,
2005-08-23, 00:52:00,VALID,919.256,VALID,0,VALID,100,VALID,-0.0339617,VALID,20.0624,VALID,119,VALID,0.23125,
2005-08-23, 00:53:00,VALID,919.247,VALID,0,VALID,100,VALID,-0.0169808,VALID,20.0724,VALID,119,VALID,0.341206,
2005-08-23, 00:54:00,VALID,919.24,VALID,0,VALID,100,VALID,0,VALID,20.0627,VALID,118,VALID,0.327381,
2005-08-23, 00:55:00,VALID,919.226,VALID,0,VALID,100,VALID,0,VALID,20.0272,VALID,90,VALID,0.393043,
2005-08-23, 00:56:00,VALID,919.208,VALID,0,VALID,100,VALID,0,VALID,20.0016,VALID,23,VALID,0.592773,
2005-08-23, 00:57:00,VALID,919.199,VALID,0,VALID,100,VALID,-0.0169808,VALID,19.979,VALID,22,VALID,0.477493,
2005-08-23, 00:58:00,VALID,919.182,VALID,0,VALID,100,VALID,0,VALID,19.9531,VALID,22,VALID,0.401708,
2005-08-23, 00:59:00,VALID,919.169,VALID,0,VALID,100,VALID,0,VALID,19.9596,VALID,22,VALID,0.467187,
2005-08-23, 01:00:00,VALID,919.17,VALID,0,VALID,100,VALID,0,VALID,19.9333,VALID,23,VALID,0.651101,
2005-08-23, 01:01:00,VALID,919.161,VALID,0,VALID,100,VALID,-0.0169808,VALID,19.9042,VALID,18,VALID,0.742733,
2005-08-23, 01:02:00,VALID,919.153,VALID,0,VALID,100,VALID,0,VALID,19.9111,VALID,19,VALID,0.813033,
2005-08-23, 01:03:00,VALID,919.132,VALID,0,VALID,100,VALID,0.0169808,VALID,19.9109,VALID,23,VALID,0.727653,
2005-08-23, 01:04:00,VALID,919.116,VALID,0,VALID,100,VALID,0,VALID,19.8784,VALID,27,VALID,0.681362,
2005-08-23, 01:05:00,VALID,919.118,VALID,0,VALID,100,VALID,0,VALID,19.8689,VALID,30,VALID,0.63058,
2005-08-23, 01:06:00,VALID,919.117,VALID,0,VALID,100,VALID,0,VALID,19.8784,VALID,24,VALID,0.603379,
2005-08-23, 01:07:00,VALID,919.097,VALID,0,VALID,100,VALID,0,VALID,19.8786,VALID,24,VALID,0.525724,
2005-08-23, 01:08:00,VALID,919.078,VALID,0,VALID,100,VALID,0.0169808,VALID,19.862,VALID,21,VALID,0.496838,
2005-08-23, 01:09:00,VALID,919.069,VALID,0,VALID,100,VALID,0,VALID,19.8654,VALID,12,VALID,0.564986,
2005-08-23, 01:10:00,VALID,919.053,VALID,0,VALID,100,VALID,0,VALID,19.8751,VALID,12,VALID,0.471768,
2005-08-23, 01:11:00,VALID,919.051,VALID,0,VALID,100,VALID,0,VALID,19.8495,VALID,12,VALID,0.384718,
2005-08-23, 01:12:00,VALID,919.04,VALID,0,VALID,100,VALID,0,VALID,19.8525,VALID,12,VALID,0.475399,
2005-08-23, 01:13:00,VALID,919.035,VALID,0,VALID,100,VALID,0,VALID,19.8625,VALID,12,VALID,0.618862,
2005-08-23, 01:14:00,VALID,919.031,VALID,0,VALID,100,VALID,0,VALID,19.8493,VALID,12,VALID,0.351017,
2005-08-23, 01:15:00,VALID,919.023,VALID,0,VALID,100,VALID,0.0169808,VALID,19.8461,VALID,12,VALID,0.321378,
2005-08-23, 01:16:00,VALID,919.025,VALID,0,VALID,100,VALID,0,VALID,19.8622,VALID,15,VALID,0.355196,
2005-08-23, 01:17:00,VALID,919.018,VALID,0,VALID,100,VALID,0,VALID,19.8885,VALID,26,VALID,0.557231,
2005-08-23, 01:18:00,VALID,919.013,VALID,0,VALID,100,VALID,0.0169808,VALID,19.8552,VALID,26,VALID,0.498094,
2005-08-23, 01:19:00,VALID,919.008,VALID,0,VALID,100,VALID,0.0679233,VALID,19.8421,VALID,26,VALID,0.316506,
2005-08-23, 01:20:00,VALID,919.008,VALID,0,VALID,100,VALID,0.0169808,VALID,19.8456,VALID,26,VALID,0.327951,
2005-08-23, 01:21:00,VALID,918.994,VALID,0,VALID,100,VALID,0.0169808,VALID,19.8557,VALID,26,VALID,0.197409,
2005-08-23, 01:22:00,VALID,918.986,VALID,0,VALID,100,VALID,0.0339617,VALID,19.8587,VALID,26,VALID,0.237393,
2005-08-23, 01:23:00,VALID,918.985,VALID,0,VALID,100,VALID,0.0169808,VALID,19.849,VALID,23,VALID,0.2766,
2005-08-23, 01:24:00,VALID,918.984,VALID,0,VALID,100,VALID,0.0339617,VALID,19.8361,VALID,16,VALID,0.252046,
2005-08-23, 01:25:00,VALID,918.975,VALID,0,VALID,100,VALID,0.0679233,VALID,19.8006,VALID,14,VALID,0.334375,
2005-08-23, 01:26:00,VALID,918.974,VALID,0,VALID,100,VALID,0.0509425,VALID,19.7745,VALID,10,VALID,0.308239,
2005-08-23, 01:27:00,VALID,918.961,VALID,0,VALID,100,VALID,0.0339617,VALID,19.7651,VALID,10,VALID,0.17024,
2005-08-23, 01:28:00,VALID,918.957,VALID,0,VALID,100,VALID,0.0169808,VALID,19.778,VALID,10,VALID,0.191315,
2005-08-23, 01:29:00,VALID,918.955,VALID,0,VALID,100,VALID,0.0169808,VALID,19.7785,VALID,10,VALID,0,
2005-08-23, 01:30:00,VALID,918.953,VALID,0,VALID,100,VALID,-0.0339617,VALID,19.7859,VALID,10,VALID,0,
2005-08-23, 01:31:00,VALID,918.954,VALID,0,VALID,100,VALID,-0.0849042,VALID,19.8023,VALID,10,VALID,0.00834517,
2005-08-23, 01:32:00,VALID,918.94,VALID,0.2,VALID,100,VALID,-0.0679233,VALID,19.8153,VALID,10,VALID,0,
2005-08-23, 01:33:00,VALID,918.929,VALID,0,VALID,100,VALID,-0.0679233,VALID,19.7862,VALID,10,VALID,0,
2005-08-23, 01:34:00,VALID,918.913,VALID,0,VALID,100,VALID,-0.0509425,VALID,19.7666,VALID,10,VALID,0,
2005-08-23, 01:35:00,VALID,918.91,VALID,0,VALID,100,VALID,-0.0849042,VALID,19.7541,VALID,10,VALID,0,
2005-08-23, 01:36:00,VALID,918.896,VALID,0,VALID,100,VALID,-0.101885,VALID,19.7285,VALID,10,VALID,0,
2005-08-23, 01:37:00,VALID,918.881,VALID,0,VALID,100,VALID,-0.0849042,VALID,19.7221,VALID,10,VALID,0,
2005-08-23, 01:38:00,VALID,918.879,VALID,0,VALID,100,VALID,-0.0849042,VALID,19.7084,VALID,10,VALID,0,
2005-08-23, 01:39:00,VALID,918.872,VALID,0,VALID,100,VALID,-0.0849042,VALID,19.7285,VALID,10,VALID,0.0731534,
2005-08-23, 01:40:00,VALID,918.843,VALID,0,VALID,100,VALID,-0.101885,VALID,19.7251,VALID,10,VALID,0.00872093,
2005-08-23, 01:41:00,VALID,918.836,VALID,0,VALID,100,VALID,-0.0509425,VALID,19.7117,VALID,10,VALID,0.00887784,
2005-08-23, 01:42:00,VALID,918.815,VALID,0,VALID,100,VALID,-0.0679233,VALID,19.6987,VALID,10,VALID,0.00106534,
2005-08-23, 01:43:00,VALID,918.804,VALID,0,VALID,100,VALID,-0.0849042,VALID,19.7213,VALID,10,VALID,0.000679348,
2005-08-23, 01:44:00,VALID,918.782,VALID,0,VALID,100,VALID,-0.0679233,VALID,19.7345,VALID,10,VALID,0.000363372,
2005-08-23, 01:45:00,VALID,918.772,VALID,0,VALID,100,VALID,-0.0849042,VALID,19.7507,VALID,10,VALID,0,
2005-08-23, 01:46:00,VALID,918.761,VALID,0,VALID,100,VALID,-0.0679233,VALID,19.7608,VALID,10,VALID,0,
2005-08-23, 01:47:00,VALID,918.747,VALID,0,VALID,100,VALID,-0.0679233,VALID,19.7348,VALID,10,VALID,0,
2005-08-23, 01:48:00,VALID,918.735,VALID,0,VALID,100,VALID,-0.101885,VALID,19.7377,VALID,10,VALID,0,
2005-08-23, 01:49:00,VALID,918.737,VALID,0,VALID,100,VALID,-0.101885,VALID,19.7743,VALID,10,VALID,0,
2005-08-23, 01:50:00,VALID,918.742,VALID,0,VALID,100,VALID,-0.0849042,VALID,19.7603,VALID,10,VALID,0.0595238,
2005-08-23, 01:51:00,VALID,918.731,VALID,0,VALID,100,VALID,-0.101885,VALID,19.7745,VALID,10,VALID,0.153125,
2005-08-23, 01:52:00,VALID,918.724,VALID,0,VALID,100,VALID,-0.0849042,VALID,19.7281,VALID,10,VALID,0.273793,
2005-08-23, 01:53:00,VALID,918.712,VALID,0,VALID,100,VALID,-0.101885,VALID,19.7092,VALID,10,VALID,0.228693,
2005-08-23, 01:54:00,VALID,918.714,VALID,0,VALID,100,VALID,-0.0679233,VALID,19.6925,VALID,22,VALID,0.347461,
2005-08-23, 01:55:00,VALID,918.716,VALID,0,VALID,100,VALID,-0.0849042,VALID,19.6898,VALID,55,VALID,0.403161,
2005-08-23, 01:56:00,VALID,918.702,VALID,0,VALID,100,VALID,-0.101885,VALID,19.7027,VALID,102,VALID,0.368963,
2005-08-23, 01:57:00,VALID,918.685,VALID,0,VALID,100,VALID,-0.101885,VALID,19.7256,VALID,110,VALID,0.167492,
2005-08-23, 01:58:00,VALID,918.671,VALID,0,VALID,100,VALID,-0.101885,VALID,19.7149,VALID,120,VALID,0.547256,
2005-08-23, 01:59:00,VALID,918.648,VALID,0,VALID,100,VALID,-0.0679233,VALID,19.731,VALID,113,VALID,0.509993,
2005-08-23, 02:00:00,VALID,918.633,VALID,0,VALID,100,VALID,0.0169808,VALID,19.7591,VALID,109,VALID,0.380451,
2005-08-23, 02:01:00,VALID,918.618,VALID,0,VALID,100,VALID,0,VALID,19.7626,VALID,137,VALID,0.692951,
2005-08-23, 02:02:00,VALID,918.599,VALID,0,VALID,100,VALID,0.0339617,VALID,19.7526,VALID,129,VALID,0.481318,
2005-08-23, 02:03:00,VALID,918.57,VALID,0,VALID,100,VALID,-0.0169808,VALID,19.7524,VALID,105,VALID,0.790698,
2005-08-23, 02:04:00,VALID,918.557,VALID,0,VALID,100,VALID,0,VALID,19.7459,VALID,144,VALID,0.350066,
2005-08-23, 02:05:00,VALID,918.552,VALID,0,VALID,100,VALID,0,VALID,19.7584,VALID,132,VALID,0.365986,
2005-08-23, 02:06:00,VALID,918.54,VALID,0,VALID,100,VALID,0,VALID,19.7556,VALID,131,VALID,0.669876,
2005-08-23, 02:07:00,VALID,918.533,VALID,0,VALID,100,VALID,0.0169808,VALID,19.7596,VALID,100,VALID,0.574886,
2005-08-23, 02:08:00,VALID,918.518,VALID,0,VALID,100,VALID,0,VALID,19.7432,VALID,99,VALID,0.378162,
2005-08-23, 02:09:00,VALID,918.503,VALID,0,VALID,100,VALID,0,VALID,19.7333,VALID,98,VALID,0.464208,
2005-08-23, 02:10:00,VALID,918.508,VALID,0,VALID,100,VALID,0.0169808,VALID,19.7497,VALID,92,VALID,0.637674,
2005-08-23, 02:11:00,VALID,918.494,VALID,0,VALID,100,VALID,0,VALID,19.7432,VALID,86,VALID,1.0625,
2005-08-23, 02:12:00,VALID,918.478,VALID,0,VALID,100,VALID,-0.0169808,VALID,19.7298,VALID,91,VALID,0.706214,
2005-08-23, 02:13:00,VALID,918.477,VALID,0,VALID,100,VALID,0,VALID,19.7435,VALID,77,VALID,0.773438,
2005-08-23, 02:14:00,VALID,918.48,VALID,0,VALID,100,VALID,0,VALID,19.7375,VALID,91,VALID,1.01696,
2005-08-23, 02:15:00,VALID,918.478,VALID,0,VALID,100,VALID,-0.0169808,VALID,19.7082,VALID,111,VALID,0.882631,
2005-08-23, 02:16:00,VALID,918.457,VALID,0,VALID,100,VALID,-0.0339617,VALID,19.6883,VALID,102,VALID,1.09133,
2005-08-23, 02:17:00,VALID,918.461,VALID,0,VALID,100,VALID,-0.0169808,VALID,19.6821,VALID,103,VALID,1.15606,
2005-08-23, 02:18:00,VALID,918.448,VALID,0,VALID,100,VALID,0,VALID,19.663,VALID,102,VALID,0.5125,
2005-08-23, 02:19:00,VALID,918.443,VALID,0,VALID,100,VALID,-0.0169808,VALID,19.6659,VALID,102,VALID,1.00056,
2005-08-23, 02:20:00,VALID,918.44,VALID,0,VALID,100,VALID,-0.0339617,VALID,19.6635,VALID,98,VALID,0.787609,
2005-08-23, 02:21:00,VALID,918.431,VALID,0,VALID,100,VALID,-0.0169808,VALID,19.6438,VALID,99,VALID,0.970052,
2005-08-23, 02:22:00,VALID,918.407,VALID,0,VALID,100,VALID,-0.0679233,VALID,19.6143,VALID,102,VALID,0.948602,
2005-08-23, 02:23:00,VALID,918.397,VALID,0,VALID,100,VALID,-0.0169808,VALID,19.6115,VALID,114,VALID,0.61452,
2005-08-23, 02:24:00,VALID,918.384,VALID,0,VALID,100,VALID,-0.0169808,VALID,19.6078,VALID,94,VALID,0.186133,
2005-08-23, 02:25:00,VALID,918.373,VALID,0,VALID,100,VALID,-0.0169808,VALID,19.6143,VALID,93,VALID,0.373471,
2005-08-23, 02:26:00,VALID,918.367,VALID,0,VALID,100,VALID,-0.0339617,VALID,19.6212,VALID,94,VALID,0.235119,
2005-08-23, 02:27:00,VALID,918.366,VALID,0,VALID,100,VALID,-0.0169808,VALID,19.614,VALID,96,VALID,0.654948,
2005-08-23, 02:28:00,VALID,918.359,VALID,0,VALID,100,VALID,-0.0169808,VALID,19.5949,VALID,77,VALID,0.53142,
2005-08-23, 02:29:00,VALID,918.34,VALID,0,VALID,100,VALID,0,VALID,19.5788,VALID,91,VALID,0.500545,
2005-08-23, 02:30:00,VALID,918.323,VALID,0,VALID,100,VALID,-0.0339617,VALID,19.5855,VALID,90,VALID,0.228237,
2005-08-23, 02:31:00,VALID,918.309,VALID,0,VALID,100,VALID,-0.0169808,VALID,19.5817,VALID,80,VALID,0.600868,
2005-08-23, 02:32:00,VALID,918.302,VALID,0,VALID,100,VALID,-0.0169808,VALID,19.572,VALID,55,VALID,0.706836,
2005-08-23, 02:33:00,VALID,918.289,VALID,0,VALID,100,VALID,-0.0169808,VALID,19.5631,VALID,57,VALID,0.695652,
2005-08-23, 02:34:00,VALID,918.281,VALID,0,VALID,100,VALID,0,VALID,19.5398,VALID,58,VALID,0.626439,
2005-08-23, 02:35:00,VALID,918.271,VALID,0,VALID,100,VALID,0,VALID,19.5268,VALID,69,VALID,0.551054,
2005-08-23, 02:36:00,VALID,918.266,VALID,0,VALID,100,VALID,-0.0509425,VALID,19.5012,VALID,74,VALID,0.504167,
2005-08-23, 02:37:00,VALID,918.264,VALID,0,VALID,100,VALID,-0.0339617,VALID,19.4754,VALID,75,VALID,0.688953,
2005-08-23, 02:38:00,VALID,918.243,VALID,0,VALID,100,VALID,-0.0339617,VALID,19.4565,VALID,76,VALID,0.708705,
2005-08-23, 02:39:00,VALID,918.234,VALID,0,VALID,100,VALID,0,VALID,19.4406,VALID,83,VALID,0.837081,
2005-08-23, 02:40:00,VALID,918.234,VALID,0,VALID,100,VALID,-0.0679233,VALID,19.4275,VALID,75,VALID,0.890795,
2005-08-23, 02:41:00,VALID,918.228,VALID,0,VALID,100,VALID,-0.0339617,VALID,19.4076,VALID,85,VALID,0.828726,
2005-08-23, 02:42:00,VALID,918.218,VALID,0,VALID,100,VALID,0,VALID,19.4046,VALID,90,VALID,0.914621,
2005-08-23, 02:43:00,VALID,918.203,VALID,0,VALID,100,VALID,-0.0509425,VALID,19.3982,VALID,96,VALID,0.975038,
2005-08-23, 02:44:00,VALID,918.194,VALID,0,VALID,100,VALID,0.0169808,VALID,19.3986,VALID,107,VALID,0.87965,
2005-08-23, 02:45:00,VALID,918.179,VALID,0,VALID,100,VALID,0.0679233,VALID,19.3838,VALID,104,VALID,0.792333,
2005-08-23, 02:46:00,VALID,918.166,VALID,0,VALID,100,VALID,0.0679233,VALID,19.3738,VALID,102,VALID,0.957031,
2005-08-23, 02:47:00,VALID,918.158,VALID,0,VALID,100,VALID,0.0679233,VALID,19.3741,VALID,106,VALID,1.09896,
2005-08-23, 02:48:00,VALID,918.152,VALID,0,VALID,100,VALID,0.0509425,VALID,19.378,VALID,98,VALID,0.942769,
2005-08-23, 02:49:00,VALID,918.129,VALID,0,VALID,100,VALID,0.0679233,VALID,19.3776,VALID,115,VALID,0.832126,
2005-08-23, 02:50:00,VALID,918.109,VALID,0,VALID,100,VALID,0.0509425,VALID,19.3709,VALID,110,VALID,0.771984,
2005-08-23, 02:51:00,VALID,918.098,VALID,0,VALID,100,VALID,0.0339617,VALID,19.3681,VALID,114,VALID,1.17188,
2005-08-23, 02:52:00,VALID,918.087,VALID,0,VALID,100,VALID,0.0679233,VALID,19.3552,VALID,100,VALID,1.15945,
2005-08-23, 02:53:00,VALID,918.084,VALID,0,VALID,100,VALID,0.0679233,VALID,19.3316,VALID,105,VALID,0.837209,
2005-08-23, 02:54:00,VALID,918.077,VALID,0,VALID,100,VALID,0.0679233,VALID,19.3227,VALID,86,VALID,0.908854,
2005-08-23, 02:55:00,VALID,918.077,VALID,0,VALID,100,VALID,0.101885,VALID,19.3127,VALID,79,VALID,0.841844,
2005-08-23, 02:56:00,VALID,918.063,VALID,0,VALID,100,VALID,0.0849042,VALID,19.2936,VALID,76,VALID,0.528343,
2005-08-23, 02:57:00,VALID,918.053,VALID,0,VALID,100,VALID,0.0849042,VALID,19.2936,VALID,70,VALID,0.470846,
2005-08-23, 02:58:00,VALID,918.04,VALID,0,VALID,100,VALID,0.0509425,VALID,19.2645,VALID,75,VALID,0.762251,
2005-08-23, 02:59:00,VALID,918.036,VALID,0,VALID,100,VALID,0.0339617,VALID,19.2392,VALID,75,VALID,0.59668,
2005-08-23, 03:00:00,VALID,918.038,VALID,0,VALID,100,VALID,0,VALID,19.2272,VALID,97,VALID,0.71224,
2005-08-23, 03:01:00,VALID,918.042,VALID,0,VALID,100,VALID,-0.0339617,VALID,19.2014,VALID,100,VALID,0.82207,
2005-08-23, 03:02:00,VALID,918.029,VALID,0,VALID,100,VALID,-0.0509425,VALID,19.1853,VALID,105,VALID,0.899306,
2005-08-23, 03:03:00,VALID,918.039,VALID,0,VALID,100,VALID,-0.0339617,VALID,19.1761,VALID,106,VALID,0.512277,
2005-08-23, 03:04:00,VALID,918.045,VALID,0,VALID,100,VALID,-0.0679233,VALID,19.1597,VALID,112,VALID,0.417969,
2005-08-23, 03:05:00,VALID,918.031,VALID,0,VALID,100,VALID,-0.0509425,VALID,19.15,VALID,100,VALID,0.707639,
2005-08-23, 03:06:00,VALID,918.03,VALID,0,VALID,100,VALID,0,VALID,19.1564,VALID,117,VALID,0.538889,
2005-08-23, 03:07:00,VALID,918.034,VALID,0,VALID,100,VALID,0.0509425,VALID,19.1617,VALID,127,VALID,0.634909,
2005-08-23, 03:08:00,VALID,918.022,VALID,0,VALID,100,VALID,0.0339617,VALID,19.1456,VALID,99,VALID,0.99343,
2005-08-23, 03:09:00,VALID,918.021,VALID,0,VALID,100,VALID,0.0509425,VALID,19.1488,VALID,94,VALID,0.831577,
2005-08-23, 03:10:00,VALID,918.024,VALID,0,VALID,100,VALID,0.0849042,VALID,19.1518,VALID,90,VALID,0.631836,
2005-08-23, 03:11:00,VALID,918.008,VALID,0,VALID,100,VALID,0.0849042,VALID,19.1582,VALID,72,VALID,0.667515,
2005-08-23, 03:12:00,VALID,917.992,VALID,0,VALID,100,VALID,0.0679233,VALID,19.155,VALID,60,VALID,0.992708,
2005-08-23, 03:13:00,VALID,917.977,VALID,0,VALID,100,VALID,0.101885,VALID,19.1317,VALID,57,VALID,0.94494,
2005-08-23, 03:14:00,VALID,917.971,VALID,0,VALID,100,VALID,0.0849042,VALID,19.1391,VALID,57,VALID,0.968395,
2005-08-23, 03:15:00,VALID,917.955,VALID,0,VALID,100,VALID,-0.0339617,VALID,19.1338,VALID,50,VALID,0.876402,
2005-08-23, 03:16:00,VALID,917.951,VALID,0,VALID,100,VALID,-0.0169808,VALID,19.1341,VALID,60,VALID,0.976753,
2005-08-23, 03:17:00,VALID,917.933,VALID,0,VALID,100,VALID,-0.0509425,VALID,19.1244,VALID,83,VALID,0.808416,
2005-08-23, 03:18:00,VALID,917.907,VALID,0,VALID,100,VALID,-0.0169808,VALID,19.1276,VALID,77,VALID,0.453316,
2005-08-23, 03:19:00,VALID,917.89,VALID,0,VALID,100,VALID,-0.0339617,VALID,19.1279,VALID,65,VALID,0.335751,
2005-08-23, 03:20:00,VALID,917.865,VALID,0,VALID,100,VALID,-0.0169808,VALID,19.1371,VALID,62,VALID,0.211483,
2005-08-23, 03:21:00,VALID,917.847,VALID,0,VALID,100,VALID,0,VALID,19.1403,VALID,62,VALID,0.358132,
2005-08-23, 03:22:00,VALID,917.817,VALID,0,VALID,100,VALID,-0.0679233,VALID,19.1405,VALID,62,VALID,0.0655185,
2005-08-23, 03:23:00,VALID,917.81,VALID,0,VALID,100,VALID,-0.0509425,VALID,19.144,VALID,62,VALID,0.0832122,
2005-08-23, 03:24:00,VALID,917.782,VALID,0,VALID,100,VALID,-0.0509425,VALID,19.1438,VALID,62,VALID,0.00186012,
2005-08-23, 03:25:00,VALID,917.77,VALID,0,VALID,100,VALID,-0.0679233,VALID,19.144,VALID,62,VALID,0,
2005-08-23, 03:26:00,VALID,917.768,VALID,0,VALID,100,VALID,-0.0679233,VALID,19.141,VALID,62,VALID,0,
2005-08-23, 03:27:00,VALID,917.752,VALID,0,VALID,100,VALID,-0.0169808,VALID,19.1338,VALID,62,VALID,0,
2005-08-23, 03:28:00,VALID,917.749,VALID,0,VALID,100,VALID,-0.0339617,VALID,19.1438,VALID,62,VALID,0,
2005-08-23, 03:29:00,VALID,917.74,VALID,0,VALID,100,VALID,-0.0339617,VALID,19.1597,VALID,62,VALID,0,
2005-08-23, 03:30:00,VALID,917.73,VALID,0,VALID,100,VALID,-0.0169808,VALID,19.1666,VALID,62,VALID,0,
2005-08-23, 03:31:00,VALID,917.713,VALID,0,VALID,100,VALID,-0.0339617,VALID,19.1671,VALID,62,VALID,0,
2005-08-23, 03:32:00,VALID,917.7,VALID,0,VALID,100,VALID,-0.0339617,VALID,19.1828,VALID,62,VALID,0,
2005-08-23, 03:33:00,VALID,917.676,VALID,0,VALID,100,VALID,-0.0339617,VALID,19.1793,VALID,62,VALID,0,
2005-08-23, 03:34:00,VALID,917.667,VALID,0,VALID,100,VALID,-0.0339617,VALID,19.1791,VALID,62,VALID,0,
2005-08-23, 03:35:00,VALID,917.661,VALID,0,VALID,100,VALID,0,VALID,19.1957,VALID,62,VALID,0,
2005-08-23, 03:36:00,VALID,917.648,VALID,0,VALID,100,VALID,-0.0679233,VALID,19.1987,VALID,62,VALID,0,
2005-08-23, 03:37:00,VALID,917.635,VALID,0,VALID,100,VALID,-0.0339617,VALID,19.2121,VALID,62,VALID,0,
2005-08-23, 03:38:00,VALID,917.643,VALID,0,VALID,100,VALID,-0.0509425,VALID,19.2056,VALID,62,VALID,0,
2005-08-23, 03:39:00,VALID,917.64,VALID,0,VALID,100,VALID,-0.0679233,VALID,19.1661,VALID,62,VALID,0,
2005-08-23, 03:40:00,VALID,917.653,VALID,0,VALID,100,VALID,-0.0849042,VALID,19.1472,VALID,62,VALID,0,
2005-08-23, 03:41:00,VALID,917.651,VALID,0,VALID,100,VALID,-0.0339617,VALID,19.1276,VALID,62,VALID,0,
2005-08-23, 03:42:00,VALID,917.648,VALID,0,VALID,100,VALID,-0.0509425,VALID,19.1311,VALID,62,VALID,0,
2005-08-23, 03:43:00,VALID,917.634,VALID,0,VALID,100,VALID,-0.0679233,VALID,19.1249,VALID,62,VALID,0.0999273,